Location: Oroua River
(40.4333°S, 175.4333°E)
Time: 13:59:22
(UTC+00:00)

BlueWalker 3 - Pass Details

Date: 03 February 2023
Orbit: 497 x 515 km, 53.2° (Epoch: 22 March)

Event Time Altitude Azimuth Distance (km) Brightness Sun altitude
Exits shadow 14:29:33 18° 82° (E) 1,329 4.3 -26.9°
Drops below altitude 10° 14:31:11 10° 103° (ESE) 1,758 5.2 -26.7°
Sets 14:33:44 0° 118° (ESE) 2,649 6.5 -26.5°
